Theta_e
289 291 290 290 291 291 290 290 290 290 291 290 287 288 290 290 285 283 290 290 288 291 293 295 296 297 297 298 299 300 301 300 299 299 300 300 299 300 301 302 302 300 300 301 301 300 301 300 300 301 302 302 301 300 300 299 298 298 297 297 296 295 295 297 298 299 299 301 303 305 305 306 307 308 308 308 307 308 309 310 311 311 313 314 312 313 314
289 290 291 290 287 289 290 290 290 291 291 291 291 290 291 291 289 290 290 290 290 293 294 296 297 299 299 299 300 299 298 297 297 297 298 298 299 299 299 300 301 300 300 300 300 300 300 301 301 300 301 302 302 302 302 299 298 299 298 297 296 295 296 297 298 298 298 299 301 302 303 305 305 304 303 303 304 304 307 308 308 308 309 311 313 316 316
284 288 289 290 289 288 285 288 289 290 290 291 290 289 291 292 291 292 291 289 289 295 297 298 299 299 298 298 298 298 297 295 296 297 297 297 298 298 298 298 299 299 298 299 299 300 301 301 301 304 304 304 303 301 299 299 299 300 297 298 295 295 297 297 297 297 298 298 299 299 301 302 302 301 303 301 302 303 303 303 304 301 303 309 312 315 316
282 286 287 289 289 287 285 285 287 287 286 283 287 286 289 289 287 289 288 287 288 294 298 298 298 297 296 296 296 296 296 296 295 294 295 295 296 295 297 299 299 298 298 299 299 299 300 301 301 302 303 301 298 300 300 300 300 298 297 297 297 297 296 296 297 297 297 297 297 298 298 299 299 298 296 297 299 301 301 300 300 296 301 306 309 311 313
278 283 286 285 284 282 280 283 287 289 289 289 289 290 290 291 291 287 284 286 293 294 294 292 293 294 293 293 293 293 293 293 293 295 296 296 295 296 297 298 297 298 300 301 301 301 299 301 301 301 300 299 299 299 299 299 298 297 297 297 296 296 297 296 296 296 296 296 297 297 297 296 295 294 294 295 296 297 298 299 295 300 304 305 305 306 308
278 281 283 283 281 276 277 289 292 291 288 289 287 287 288 290 291 289 291 291 291 290 291 291 292 293 293 294 295 294 293 293 294 295 295 296 296 296 298 298 298 298 299 300 301 300 300 299 298 297 297 297 298 297 298 297 296 296 296 296 296 296 296 296 296 296 296 295 295 296 295 294 291 291 292 294 293 292 292 292 296 298 298 299 301 303 305
276 279 281 278 274 276 286 289 292 293 292 291 289 289 289 290 290 290 289 289 289 291 292 293 293 294 295 295 294 295 295 293 292 293 294 296 297 297 297 297 298 300 300 299 298 298 299 298 297 297 297 296 297 296 296 296 296 295 295 294 295 295 295 296 295 295 295 295 295 295 294 292 291 291 291 291 290 289 289 291 293 295 295 295 298 298 300
281 277 277 270 272 281 287 288 290 292 292 291 289 286 289 290 289 290 289 291 292 292 293 294 294 294 294 294 294 293 294 294 293 295 296 296 296 297 298 298 298 297 296 296 296 296 297 297 297 296 295 295 295 294 294 294 294 294 294 294 293 293 294 294 295 295 295 295 294 293 293 292 291 291 290 290 290 288 288 290 291 292 293 294 295 295 296
274 275 276 275 281 281 282 282 285 288 285 284 285 281 285 290 291 291 290 291 292 292 293 293 293 293 291 290 293 293 296 297 297 297 296 297 296 297 297 296 296 296 294 294 294 294 294 294 295 295 294 294 294 293 292 293 293 293 293 293 294 294 294 294 294 294 295 295 294 293 292 292 291 291 290 290 289 288 289 289 289 290 291 292 293 294 294
280 275 273 274 273 271 278 285 288 291 291 291 289 283 281 289 290 292 291 291 291 291 291 290 290 289 286 286 289 292 293 295 295 295 295 294 294 294 293 293 293 292 292 293 294 293 293 293 292 291 289 292 292 291 292 292 292 292 293 293 294 293 294 294 294 294 294 293 293 292 292 292 292 291 291 289 289 288 289 289 288 289 289 290 291 292 293
278 276 272 271 270 275 281 283 288 290 291 290 288 282 279 286 289 290 289 288 289 290 289 289 289 286 283 284 288 293 291 291 292 291 291 292 291 292 292 292 292 292 293 292 290 289 289 291 292 290 288 289 290 289 289 290 290 291 291 292 292 292 292 293 292 292 292 292 292 291 291 292 292 291 291 290 290 289 288 288 289 288 287 289 290 291 292
276 275 273 272 274 277 280 285 286 288 291 292 285 271 274 286 287 290 290 289 289 288 289 288 286 285 283 285 289 290 290 291 290 290 290 291 291 291 290 291 290 290 290 290 290 290 290 290 289 289 287 288 286 287 288 287 288 289 290 291 291 291 291 291 291 291 291 290 290 290 290 290 290 290 290 289 289 289 287 287 289 288 287 290 290 291 291
278 279 274 276 277 284 285 285 286 288 292 287 276 272 278 286 289 291 292 290 290 289 287 288 285 288 290 290 290 290 290 288 287 287 289 291 290 290 290 289 288 289 289 289 289 289 289 289 288 287 287 287 287 287 287 287 287 288 289 289 289 289 289 289 289 289 289 288 288 288 288 289 289 289 288 289 288 287 288 287 287 288 288 289 290 290 291
277 276 273 274 277 283 287 285 289 288 286 274 275 282 288 290 289 288 289 288 287 287 287 287 287 288 289 290 289 289 289 288 287 288 288 287 287 288 288 288 288 286 286 287 287 287 288 289 288 287 286 286 286 286 286 287 287 288 288 288 287 287 287 286 286 287 287 287 287 287 287 287 287 288 287 287 288 287 287 287 287 288 288 288 289 290 290
276 274 274 272 271 279 290 289 286 287 281 281 284 286 286 287 288 288 287 287 287 287 287 287 288 287 287 288 288 288 288 288 287 287 286 286 287 287 287 288 288 288 288 288 288 288 289 289 289 288 287 286 285 285 286 286 287 287 287 287 286 286 285 285 285 285 286 286 286 287 287 287 287 287 287 287 287 286 286 287 287 288 288 288 288 289 290
275 275 273 275 280 286 290 289 283 285 288 288 289 288 285 286 285 286 287 286 287 286 287 286 287 287 287 285 287 285 285 285 285 285 284 284 285 285 286 287 289 288 288 288 288 288 288 288 288 288 288 288 287 286 286 287 286 286 286 286 285 285 285 285 285 285 285 286 286 286 286 286 286 286 287 287 286 286 286 287 288 288 288 288 289 289 289
280 278 281 284 285 289 291 292 291 291 290 290 289 290 288 286 285 285 288 288 287 287 287 286 287 286 286 286 286 286 286 285 284 284 284 285 285 285 285 286 287 287 288 288 288 288 287 287 288 288 288 287 287 287 288 288 287 287 286 286 285 285 285 285 285 286 286 286 285 285 285 285 286 286 286 286 286 286 285 287 288 288 288 288 289 289 289
285 285 285 287 285 285 287 291 291 292 291 289 287 289 287 284 284 287 289 288 288 286 287 285 285 285 285 285 284 284 284 284 284 284 283 283 283 284 285 285 286 287 287 287 287 287 287 287 287 287 287 287 287 287 288 288 287 286 286 285 285 285 285 285 285 285 285 286 286 285 286 285 285 285 286 286 286 286 285 286 287 288 288 288 288 288 289
282 278 287 286 286 285 286 292 290 288 288 288 287 288 289 286 285 285 285 287 286 286 285 285 284 284 284 284 283 283 283 283 283 283 282 282 283 283 284 284 285 286 286 286 286 286 285 286 286 287 287 287 287 287 287 287 286 286 285 285 284 284 284 285 285 285 285 285 286 286 286 286 285 285 285 285 285 286 285 285 286 287 287 288 288 288 288
281 281 283 284 285 286 287 288 288 288 287 286 286 287 286 286 285 285 286 285 284 284 284 285 284 284 283 283 282 282 282 282 283 283 283 283 283 283 283 283 282 283 285 285 285 285 285 286 287 286 286 286 286 286 286 286 286 285 285 285 284 284 284 284 284 285 284 285 285 285 286 286 286 286 285 285 285 286 286 286 286 286 287 287 287 288 288
283 283 283 284 285 286 286 284 285 288 288 286 285 285 285 284 285 284 284 283 284 284 284 284 284 282 282 282 282 281 281 282 282 282 283 282 282 283 283 282 282 283 283 284 284 284 285 286 286 286 286 286 286 286 286 286 285 284 284 284 283 283 283 284 284 284 284 284 284 284 285 286 286 285 286 286 286 286 286 286 287 287 287 287 287 287 287
280 281 282 283 281 281 282 282 284 284 284 285 284 283 284 283 282 280 280 281 282 284 284 283 283 282 282 281 281 281 281 281 282 282 283 283 283 282 282 283 282 283 281 282 283 284 285 285 285 285 285 286 286 285 285 284 283 283 283 283 282 282 282 283 283 284 284 284 285 285 285 285 286 286 286 287 287 287 287 286 287 288 288 288 288 288 288
280 284 286 287 287 283 284 286 285 283 283 283 282 280 280 279 279 279 279 280 279 279 280 282 282 281 280 280 280 280 280 281 282 282 282 282 282 282 282 283 283 283 283 282 282 282 284 284 284 284 284 285 285 285 285 284 283 282 282 282 282 282 282 282 282 283 283 283 284 285 285 286 286 286 286 288 288 288 288 287 287 287 288 288 288 288 288
285 285 284 284 286 284 284 283 282 282 283 282 280 280 280 279 279 279 279 279 279 278 278 279 280 280 279 279 280 280 280 280 281 281 281 282 282 283 283 283 283 283 284 283 282 282 281 283 283 284 284 284 284 284 284 283 280 279 280 280 280 280 281 281 282 282 283 283 284 284 284 285 285 285 286 286 287 288 288 288 287 287 287 287 287 288 288
284 283 282 284 286 285 284 282 281 282 282 282 282 281 280 279 279 279 278 278 278 278 278 278 279 279 279 279 279 279 279 280 280 281 282 282 283 282 282 282 283 283 283 282 282 282 282 282 282 282 282 283 283 283 282 278 277 277 278 279 279 279 279 279 280 281 281 282 282 283 284 284 285 285 285 285 285 285 288 288 288 288 287 287 287 287 288
281 281 282 283 283 282 281 281 280 280 281 281 281 280 280 281 280 278 277 277 278 278 278 278 278 279 279 279 279 279 279 279 280 281 280 280 280 281 281 281 281 281 281 280 280 280 280 280 281 281 281 281 282 281 276 275 275 274 276 277 278 278 278 278 278 279 280 281 282 283 284 284 285 285 285 286 286 286 285 286 287 287 287 287 287 287 287
277 278 281 281 280 280 280 279 279 280 280 281 280 278 276 276 277 275 275 276 276 277 277 277 276 277 277 277 277 277 277 278 277 277 277 278 278 279 280 279 279 278 278 278 278 279 279 279 279 279 279 280 278 274 274 273 273 274 275 275 276 277 278 278 278 278 279 280 282 283 284 284 285 285 285 286 286 285 285 285 285 285 286 287 287 287 286
275 275 278 281 279 278 278 279 279 280 279 278 276 275 274 273 273 273 273 273 273 274 275 275 275 274 275 276 275 274 274 274 274 275 276 276 277 277 277 276 276 276 276 276 276 277 278 278 278 278 277 277 273 272 272 272 273 274 275 275 276 276 276 277 277 277 278 279 280 282 282 283 284 284 285 285 285 285 285 285 285 285 286 287 287 287 287
273 273 275 276 277 278 279 279 279 278 275 275 274 273 271 270 269 271 271 273 273 273 273 273 272 272 272 272 272 271 271 272 272 273 274 274 274 274 274 274 274 274 274 274 275 276 276 276 276 276 276 275 275 274 274 274 274 275 275 275 275 275 275 275 276 277 277 279 279 280 281 282 283 283 284 284 285 285 285 285 285 286 286 286 287 287 287
271 272 273 275 276 277 277 277 276 275 273 272 271 270 270 269 269 270 271 270 271 271 271 271 270 270 270 269 269 269 270 270 270 270 270 271 271 271 272 272 272 272 272 273 274 274 274 274 274 274 274 274 275 275 275 275 275 275 274 274 274 273 274 275 276 276 277 277 278 280 280 281 282 283 283 284 284 285 285 285 285 285 285 286 286 285 285
269 271 272 274 273 273 273 273 273 272 271 269 268 268 269 269 267 268 268 269 268 268 269 268 268 267 267 267 268 268 269 268 268 268 268 269 269 270 271 271 270 271 272 272 272 272 272 273 273 274 275 275 276 276 275 274 274 273 272 272 272 273 274 275 275 275 276 277 278 278 279 279 280 281 281 282 283 283 284 285 285 285 285 285 285 285 286
267 270 271 269 269 269 270 270 270 269 268 267 266 266 267 266 265 265 266 266 265 265 265 265 265 265 266 267 267 267 266 266 266 266 267 267 268 269 269 270 271 271 271 271 272 272 272 273 273 274 275 276 275 274 273 272 271 271 270 271 271 271 272 274 274 275 275 276 277 277 278 278 278 279 280 281 282 283 283 284 284 284 285 285 285 285 286
267 268 268 266 264 265 265 265 265 265 265 264 265 266 266 265 265 265 265 264 264 263 263 263 263 264 264 265 264 264 265 265 265 265 265 266 267 268 268 269 269 270 270 272 272 272 273 273 274 274 272 270 270 270 270 269 269 269 269 269 269 270 271 272 273 274 275 275 276 276 277 278 278 279 279 279 280 281 281 282 283 283 284 284 285 285 285
264 264 263 262 262 262 263 263 263 263 263 264 264 263 263 263 262 262 262 262 261 261 261 262 262 262 262 262 263 264 264 264 264 265 266 266 266 267 267 269 269 270 271 272 272 273 273 273 270 269 269 269 268 268 268 268 268 268 268 268 268 269 269 271 272 272 273 273 274 275 276 277 277 277 278 279 280 280 281 281 281 282 282 282 283 284 283
261 261 261 261 262 262 262 261 261 261 261 260 260 260 260 260 260 260 261 261 260 260 261 261 261 262 262 262 263 263 263 263 264 264 265 265 266 267 268 268 269 270 270 269 269 269 268 266 267 267 267 266 266 266 267 267 267 267 268 268 269 269 269 270 270 270 271 272 273 273 274 275 276 276 277 278 278 279 279 279 280 280 280 280 281 282 280
259 259 260 260 259 259 258 257 258 258 258 258 258 258 258 258 258 258 258 259 261 261 261 262 262 262 262 262 262 262 262 263 263 263 264 265 266 267 268 268 267 265 265 265 269 266 264 265 266 267 266 265 265 265 266 267 267 268 268 268 268 268 269 269 269 270 271 271 272 273 274 274 275 275 275 276 276 276 277 277 278 279 279 280 280 280 279
258 257 257 257 257 256 256 256 256 256 255 255 256 256 256 257 257 258 259 259 260 261 261 262 261 261 261 262 262 263 263 263 263 264 264 265 267 267 266 264 264 264 265 264 267 264 263 263 265 265 265 264 264 264 265 267 267 267 267 267 267 267 267 267 268 269 270 271 272 273 273 273 274 274 274 275 275 275 276 276 277 277 278 278 278 277 276
256 255 255 255 255 254 253 254 255 255 255 254 255 256 257 257 257 258 259 260 260 261 261 261 261 261 261 262 261 261 262 263 263 264 264 265 265 264 263 263 262 263 263 264 264 262 261 263 264 264 264 264 263 264 265 266 266 266 266 266 267 267 267 268 268 269 270 271 272 272 272 272 272 272 273 273 274 274 275 275 275 275 275 275 274 273 273
254 255 254 254 253 253 253 254 253 253 254 253 254 254 256 257 257 258 258 259 260 261 260 260 261 260 259 259 259 260 261 262 262 263 263 262 263 262 261 261 262 263 261 262 261 261 262 263 263 263 263 263 263 264 264 265 265 265 265 266 266 266 267 268 268 269 270 271 271 270 271 271 271 271 271 272 272 271 271 271 271 271 271 271 271 270 270
253 252 253 253 252 253 253 252 253 253 253 253 253 254 255 256 256 256 257 258 258 259 257 257 257 257 258 258 258 259 260 260 260 260 260 261 261 260 260 261 260 259 260 262 261 261 262 263 262 262 262 262 263 263 263 264 265 265 265 265 266 267 268 269 269 269 269 269 269 269 269 269 270 270 269 269 269 269 269 268 268 268 268 268 268 268 267
253 253 253 253 253 253 252 252 252 253 253 253 253 254 255 255 256 257 257 257 257 256 256 256 256 257 257 257 258 258 258 258 258 258 259 259 258 258 259 259 259 259 259 261 261 261 262 262 262 261 261 262 262 263 263 264 265 265 266 267 267 267 267 267 267 267 267 267 267 267 267 267 267 267 267 267 267 266 266 266 266 266 266 266 266 266 265
252 252 252 252 252 252 253 253 252 252 253 253 254 254 254 255 256 256 257 257 256 256 254 254 257 257 257 257 256 256 255 256 256 256 257 257 257 257 258 259 260 258 261 261 261 261 260 260 261 261 261 261 262 263 264 264 264 264 264 264 265 265 265 264 264 264 265 265 265 265 265 265 265 265 265 265 265 264 264 264 264 264 264 264 264 264 264
249 249 249 250 251 250 250 251 251 252 253 254 254 253 254 254 254 255 254 254 254 254 254 253 255 256 255 254 253 253 254 255 256 256 256 256 257 256 258 257 259 259 261 260 260 260 260 260 260 260 261 262 262 263 264 263 263 263 263 263 263 263 263 263 263 263 263 263 262 262 262 262 261 261 262 262 262 262 262 262 262 262 263 263 263 263 263
248 249 249 249 250 251 251 252 252 252 252 254 253 253 254 254 254 254 254 254 255 255 254 253 253 253 254 253 252 253 253 254 255 255 255 256 257 255 257 258 259 260 260 260 260 259 259 259 260 260 261 262 262 262 262 262 262 261 261 261 261 261 262 261 261 261 261 261 261 261 261 261 260 260 260 261 261 261 261 261 261 261 261 261 261 261 261
248 249 249 250 250 251 252 252 252 253 254 254 254 254 254 254 254 252 253 254 255 255 255 253 253 253 252 252 252 252 253 254 254 255 255 256 256 257 259 260 259 259 259 260 259 259 259 259 260 261 261 261 262 262 261 261 261 261 261 260 260 260 260 260 260 260 261 261 260 260 260 260 260 260 260 260 261 260 260 260 260 260 260 260 260 260 260
249 249 249 252 252 252 253 253 253 251 251 252 253 254 255 252 251 254 253 254 253 254 253 253 251 252 251 251 252 252 252 253 254 254 254 254 255 256 259 259 259 259 259 259 259 259 259 260 260 260 260 261 261 260 260 260 260 260 260 260 259 259 259 260 260 260 260 260 260 260 260 260 260 260 260 260 260 260 260 260 260 260 260 260 260 260 260
249 250 250 250 252 253 253 253 253 252 252 250 252 254 254 253 253 254 254 254 253 253 253 252 251 250 249 250 251 251 251 252 254 254 254 253 256 258 258 259 259 259 259 258 258 258 259 259 259 260 260 260 260 259 259 259 259 259 259 259 259 259 259 259 259 259 259 259 260 260 260 260 259 259 260 259 259 259 259 259 259 259 260 260 260 260 260
253 253 254 254 254 255 255 255 254 254 252 254 254 255 255 255 254 254 254 254 253 252 254 253 253 251 249 249 250 251 251 251 251 252 253 254 255 255 256 255 257 259 259 258 258 259 259 259 259 259 259 259 259 258 258 258 258 258 257 258 258 258 258 258 258 258 258 259 259 259 259 259 259 259 259 259 258 259 259 259 259 259 259 259 259 259 259
254 254 255 256 255 255 255 255 255 256 256 256 255 256 255 255 254 255 254 252 251 252 253 252 250 250 250 253 253 251 252 254 253 253 254 254 254 255 256 257 258 258 258 258 257 257 258 258 258 258 259 258 257 257 257 257 257 257 257 257 257 257 257 257 257 257 257 258 258 258 258 258 258 258 258 258 258 258 258 258 258 259 258 259 259 259 259
256 256 256 257 257 257 257 257 257 258 258 256 256 255 255 254 254 254 254 253 252 254 252 251 251 251 251 250 251 251 252 253 254 254 255 255 255 256 257 257 257 258 258 257 257 257 258 258 258 258 257 257 257 257 257 257 257 257 257 257 257 256 257 257 258 258 257 257 257 258 257 257 258 258 258 258 258 258 258 258 258 258 259 258 258 258 258
256 256 257 258 259 259 258 258 258 258 257 256 255 255 255 255 254 255 255 254 251 251 251 250 252 250 251 251 251 251 252 252 253 256 254 255 256 257 257 257 257 257 257 257 257 256 256 256 256 257 256 256 256 256 256 256 256 256 256 256 256 256 256 256 256 255 256 257 256 257 257 257 257 257 257 257 257 257 257 257 257 257 257 257 258 258 258
256 257 257 258 258 258 258 258 257 257 256 256 255 254 254 254 254 254 254 256 251 250 250 249 251 249 251 252 252 251 252 252 253 253 255 255 255 255 256 257 256 256 256 255 255 255 255 256 256 256 256 256 256 256 256 256 256 256 256 256 256 256 256 256 255 255 255 256 256 256 256 256 256 256 256 256 256 256 256 256 256 256 257 257 257 257 257
Wind_Speed
4 1 9 13 13 13 13 15 14 15 14 13 14 13 12 7 9 12 10 9 11 15 18 17 13 8 8 9 6 7 10 8 5 6 8 10 9 8 8 8 7 6 7 7 7 6 7 6 7 7 7 6 5 6 6 6 4 5 4 4 5 5 5 6 8 7 7 6 7 7 8 7 8 7 7 6 6 6 7 8 9 8 8 8 8 8 7
5 3 6 5 8 7 11 12 12 12 13 14 14 13 13 12 10 10 10 6 12 11 11 14 13 12 8 9 11 11 10 6 5 7 7 7 9 9 7 7 7 6 7 7 7 6 7 7 6 6 5 6 7 7 8 5 5 6 5 5 5 5 5 7 8 7 7 6 7 7 7 9 8 7 6 6 6 6 7 7 7 7 7 8 9 11 11
3 2 2 3 5 2 3 5 5 6 6 6 6 5 7 11 13 12 11 11 13 11 12 19 21 12 8 10 16 16 7 4 7 8 7 7 8 6 7 7 7 6 6 6 6 7 8 6 7 7 7 7 7 6 6 6 6 7 6 6 5 5 7 7 7 7 7 7 6 8 8 8 8 7 7 6 6 7 7 6 6 5 4 7 10 10 11
4 4 7 7 3 4 4 3 2 1 4 8 10 11 11 11 12 10 9 11 13 15 17 13 14 12 13 16 14 14 10 6 4 4 6 6 5 5 6 7 6 5 5 6 7 7 7 7 7 6 7 6 5 6 7 7 7 6 6 6 7 8 8 7 7 8 7 7 7 8 7 8 7 6 6 6 7 7 7 7 7 5 7 8 6 6 8
3 4 7 4 3 1 4 6 7 10 11 11 10 10 9 13 12 11 11 15 17 10 2 5 12 16 12 11 10 9 10 7 6 9 12 10 4 4 5 8 7 6 9 9 7 6 5 5 5 6 5 6 7 6 7 7 7 6 7 7 7 8 8 8 9 8 7 7 7 8 8 7 6 6 6 7 8 8 10 8 5 8 10 9 9 7 8
5 6 7 5 5 11 10 9 18 18 17 17 16 13 14 13 12 11 10 8 3 3 6 10 13 16 18 15 11 3 2 6 11 11 12 12 9 8 12 11 7 8 7 4 4 4 4 4 4 5 5 5 5 5 5 6 6 7 6 7 7 8 8 8 9 9 8 7 8 8 7 7 6 6 6 8 7 6 5 4 7 8 8 10 10 10 11
3 5 7 4 11 11 6 6 6 12 15 14 15 15 15 14 12 10 9 7 7 7 8 10 12 13 13 11 9 12 10 6 6 7 9 13 14 12 11 9 5 5 4 5 5 6 6 6 5 6 7 6 7 8 8 9 7 7 6 6 6 7 7 8 8 8 8 8 9 9 8 7 6 6 6 7 7 5 5 7 7 9 8 9 10 10 10
2 5 5 4 7 4 4 5 6 9 11 13 10 11 11 10 9 8 10 12 12 12 12 12 10 10 11 11 9 7 8 3 4 8 11 7 6 5 5 5 4 5 5 5 5 5 6 7 6 5 5 6 7 7 7 7 8 7 7 6 6 5 6 7 7 7 7 8 8 8 8 8 7 7 7 7 8 6 5 6 6 7 8 8 10 9 9
5 5 5 6 4 7 5 5 7 11 9 5 9 10 11 10 7 8 10 11 12 11 9 8 8 8 6 7 11 4 5 6 4 4 5 6 6 5 5 5 5 5 5 5 5 4 5 5 6 5 5 6 6 6 7 7 7 7 7 7 7 6 6 6 7 8 8 9 9 9 8 8 8 8 8 8 7 5 7 7 7 8 8 8 8 8 9
5 3 3 1 2 6 16 8 4 7 6 6 3 2 5 3 7 11 13 11 9 9 8 8 8 6 5 8 10 3 5 5 4 4 5 5 5 5 5 5 6 6 5 5 6 6 6 6 5 5 5 6 6 6 6 6 7 8 7 7 7 8 8 8 8 8 8 8 9 9 9 9 9 9 8 7 7 5 7 7 8 8 6 8 7 7 9
6 4 5 4 6 13 1 4 6 6 9 9 6 5 9 7 13 5 3 6 9 10 10 11 9 6 8 10 5 4 3 5 4 4 5 4 4 5 5 6 7 8 8 6 5 5 5 6 7 6 5 6 6 6 5 6 5 6 6 7 8 10 11 10 10 8 7 7 7 8 9 9 9 10 9 8 7 5 6 6 8 5 5 7 7 7 8
3 5 4 7 5 8 3 3 5 6 9 11 8 2 8 8 2 9 12 11 10 10 11 9 5 7 8 8 2 1 0 1 3 4 6 6 6 5 4 5 5 5 6 8 8 8 8 7 5 6 5 5 5 6 7 5 6 7 7 7 7 8 9 10 9 10 8 9 8 7 9 10 9 9 8 8 7 7 6 5 7 6 5 7 9 9 7
4 5 4 2 6 5 5 6 4 7 8 8 7 11 7 1 3 3 2 3 4 2 0 0 2 0 3 3 3 1 1 3 4 4 2 1 3 5 5 4 4 4 5 5 5 6 6 6 5 5 4 5 6 6 6 6 7 7 7 7 8 8 8 9 9 10 9 7 10 9 6 8 9 8 7 8 8 7 8 7 6 7 6 7 8 10 7
10 6 2 6 7 6 8 6 9 5 8 3 12 4 2 7 5 4 4 4 2 4 5 3 3 5 2 0 2 1 0 1 1 1 1 2 2 2 2 5 5 4 4 5 5 5 5 6 5 5 4 4 4 5 6 8 7 6 7 8 8 8 9 9 8 8 8 8 7 8 8 8 9 9 6 6 7 7 7 7 8 9 7 7 8 10 8
2 2 4 1 8 2 16 13 8 6 8 7 4 3 3 3 6 5 3 4 2 5 4 4 4 3 1 1 0 0 1 0 1 2 2 1 2 4 5 5 4 3 5 5 5 5 5 5 5 5 4 5 5 5 7 8 6 6 7 8 8 9 9 9 8 8 7 8 9 7 8 8 8 10 8 7 7 5 6 7 8 10 9 8 9 10 10
7 7 7 9 4 5 3 13 9 6 8 2 3 3 3 0 4 6 5 1 1 3 6 4 1 1 0 2 1 4 4 3 3 2 3 2 2 3 3 3 6 4 4 4 5 3 3 4 5 5 6 7 7 8 8 6 6 6 7 8 9 10 10 10 10 9 8 8 7 7 7 8 7 8 9 7 6 5 6 6 8 9 9 7 8 10 11
6 9 11 8 6 9 4 2 1 11 4 3 2 5 4 6 2 3 7 6 3 4 4 3 2 0 0 1 3 2 5 5 5 4 4 3 3 3 4 5 5 4 7 9 8 6 2 3 4 4 4 5 7 9 10 8 9 9 9 9 10 10 11 11 11 11 11 9 8 7 6 6 8 8 8 6 8 5 3 5 6 9 10 7 9 10 10
5 6 6 3 1 1 3 4 4 4 1 1 4 5 4 3 5 6 8 6 5 4 3 3 0 1 1 1 3 3 4 5 6 5 3 3 3 3 3 4 5 5 6 7 7 10 8 3 4 3 3 4 7 9 8 8 8 8 9 10 11 11 10 10 11 11 12 12 9 7 7 6 6 6 7 7 7 7 5 6 6 7 9 8 9 9 10
6 8 12 10 8 2 5 5 2 3 3 4 4 5 5 5 5 4 4 7 5 5 3 2 2 2 2 2 4 4 4 5 5 5 5 4 2 4 5 5 5 6 6 8 9 8 11 7 5 4 4 3 4 5 6 7 6 6 7 8 10 10 11 12 11 10 11 10 11 10 8 7 6 6 6 6 6 7 6 6 7 7 8 9 9 9 11
11 6 1 4 3 1 3 6 6 3 3 5 5 4 4 5 5 5 5 4 4 5 1 1 2 1 2 2 4 4 5 6 6 6 5 6 5 3 2 5 5 5 6 8 10 11 11 10 7 6 5 5 4 4 5 5 7 7 8 7 9 10 12 11 10 10 10 12 12 11 10 9 10 9 6 6 7 7 7 7 7 8 7 8 8 8 10
7 6 3 3 4 2 4 6 4 4 7 7 6 6 6 5 5 4 4 4 3 2 0 0 1 2 3 3 3 4 5 6 6 6 6 5 5 6 6 5 4 5 6 9 9 9 10 9 9 8 7 6 5 7 8 8 8 9 10 9 8 9 9 9 10 9 8 9 10 10 11 10 8 7 9 9 8 9 6 7 7 8 9 9 8 7 8
9 11 7 3 4 3 1 2 4 6 5 8 7 5 6 5 5 4 4 2 1 1 0 1 1 2 4 4 4 5 5 5 7 7 7 6 6 6 5 5 5 6 5 6 9 9 9 7 7 8 7 7 6 5 6 5 4 6 7 8 8 8 7 8 8 9 9 9 9 9 9 10 12 12 7 11 11 9 10 7 12 13 11 11 9 7 9
8 4 5 6 6 2 2 7 5 4 2 6 7 6 5 4 4 4 3 2 4 3 3 1 1 2 3 5 5 5 5 6 6 6 7 8 7 7 6 8 8 6 6 6 7 7 8 6 5 6 7 8 8 7 7 7 5 5 6 8 8 8 8 8 9 10 10 9 9 8 9 9 9 11 14 9 10 14 15 14 14 14 15 17 17 14 10
1 2 2 1 4 7 4 4 4 5 5 8 7 4 4 3 3 3 4 3 2 4 4 4 3 2 4 4 5 6 6 5 6 7 6 7 7 8 8 8 9 9 10 6 5 5 5 6 9 10 10 9 8 9 8 6 3 3 4 6 8 8 9 9 10 10 9 9 9 9 9 8 8 10 10 13 15 8 10 11 11 13 14 15 15 14 14
2 1 2 4 10 10 8 8 8 6 6 5 4 4 3 2 3 4 3 4 4 4 3 4 5 5 5 4 4 5 5 6 6 7 8 8 9 9 9 8 9 8 6 6 7 8 9 10 11 10 10 9 9 9 7 3 2 3 4 5 8 8 9 10 11 11 10 9 9 8 8 9 9 8 9 10 11 16 13 9 12 13 14 13 14 14 14
6 4 5 5 8 8 8 8 7 5 3 3 2 3 6 8 7 7 6 4 4 4 5 5 4 5 5 5 5 6 7 7 7 8 8 9 9 9 9 8 8 8 10 10 11 11 11 11 11 11 11 10 9 7 4 4 4 4 5 6 8 7 8 10 11 10 10 10 9 9 7 8 8 8 9 8 10 11 13 15 15 10 9 11 12 13 14
8 5 4 11 8 6 4 4 3 3 1 1 6 7 5 5 5 3 3 4 3 4 4 4 4 5 5 5 5 5 6 8 9 9 8 9 9 9 8 8 10 11 12 12 11 11 13 12 11 10 9 8 6 4 4 5 6 6 7 8 8 10 15 13 10 11 11 9 9 9 8 8 8 8 8 8 8 10 11 12 12 13 14 10 7 9 10
7 8 6 4 5 4 2 2 2 1 4 7 6 6 4 5 7 7 6 5 5 5 6 6 6 6 6 5 7 9 8 8 9 10 9 9 8 8 9 11 12 12 12 12 11 11 11 11 9 7 6 5 5 5 6 6 8 9 10 9 9 9 9 10 10 9 10 11 10 9 9 8 7 7 7 8 9 10 10 10 11 12 13 9 8 9 12
8 6 6 5 2 1 0 1 0 4 8 5 6 5 6 6 4 2 3 4 5 4 4 5 5 5 5 6 7 9 9 9 9 9 10 10 10 11 11 11 11 11 12 12 11 10 7 6 8 9 8 6 8 9 10 11 11 11 11 10 9 9 9 8 9 9 9 9 10 11 11 11 9 9 8 9 9 9 9 10 11 11 11 11 9 9 7
4 4 3 3 4 4 3 3 4 5 6 6 8 6 5 4 3 3 4 4 4 5 5 5 6 7 7 8 7 8 9 9 10 10 11 12 12 11 11 12 12 10 8 8 6 8 11 11 10 10 9 8 9 9 9 9 9 9 10 11 10 10 9 9 10 10 10 10 11 14 12 10 8 9 9 9 9 9 9 10 10 10 11 11 9 10 10
4 4 3 4 7 7 6 4 3 3 6 6 6 6 5 4 3 4 4 4 4 5 5 6 7 8 6 6 7 6 7 9 11 12 12 12 12 11 11 10 11 11 10 11 11 11 11 12 11 11 10 10 10 8 8 8 8 9 8 8 9 13 17 18 14 11 9 10 10 10 10 10 10 10 11 10 9 9 9 9 10 10 10 10 10 9 9
4 2 5 7 5 4 4 4 5 4 5 4 5 5 6 5 6 6 5 4 5 6 8 8 8 9 9 8 7 8 8 10 11 11 12 12 12 11 9 8 9 11 13 13 12 12 12 13 13 11 10 8 7 6 7 8 8 9 9 8 9 10 11 15 11 11 10 10 10 9 9 9 10 9 10 10 9 9 9 10 10 10 9 10 10 9 8
2 1 1 5 4 3 3 3 3 3 5 5 4 4 3 3 4 5 5 5 7 6 7 8 8 8 8 8 9 10 10 10 10 11 11 11 9 7 7 8 10 12 12 12 12 12 13 14 13 8 6 7 8 8 8 9 10 10 9 9 9 10 10 10 12 11 10 10 9 9 9 9 9 10 10 10 10 10 10 10 10 10 10 10 10 9 7
4 2 1 0 1 1 4 5 2 3 4 4 4 4 4 4 4 5 6 6 7 7 7 8 7 8 9 10 10 9 10 11 10 9 9 9 10 10 10 11 11 13 13 12 12 10 10 8 7 7 8 8 8 9 9 10 9 9 10 9 9 9 9 9 10 9 10 10 9 11 10 10 10 9 9 8 8 8 9 10 9 9 10 10 10 8 6
4 2 2 1 2 2 2 3 4 4 4 5 5 4 4 5 6 6 7 7 7 8 7 8 8 8 9 9 10 10 10 11 11 11 10 10 10 11 10 13 13 10 11 12 12 14 8 6 8 9 10 9 9 9 9 10 10 9 9 9 9 9 9 9 9 9 10 10 10 10 10 9 8 8 9 10 9 9 9 10 10 10 10 11 10 8 7
2 1 1 0 1 1 2 2 3 3 4 5 5 5 6 6 7 7 8 8 7 8 9 9 8 8 9 9 9 9 10 10 10 12 11 10 10 10 10 9 10 13 15 15 11 4 7 8 14 17 12 10 9 8 9 9 10 10 10 9 9 9 9 10 10 10 10 10 10 10 9 11 11 11 10 9 9 10 10 11 11 10 10 10 9 8 7
2 1 1 2 2 2 3 3 3 4 4 5 5 5 7 6 7 8 7 8 8 8 8 8 8 9 9 9 9 9 9 10 10 10 11 11 10 9 10 12 12 13 12 12 5 7 11 10 15 18 13 9 10 10 10 15 9 9 8 9 9 9 9 9 9 8 9 9 9 9 10 10 9 9 9 9 10 10 10 10 10 9 9 9 9 7 4
2 1 3 3 3 3 4 5 4 4 5 7 6 6 7 7 6 7 8 8 9 8 8 8 8 8 8 9 9 9 9 9 11 12 11 10 10 12 12 10 10 10 9 8 8 9 8 11 16 12 9 9 9 10 11 17 18 12 9 8 8 8 9 9 9 9 9 8 8 8 9 8 9 9 8 9 9 9 8 8 8 8 8 7 6 5 3
2 2 1 3 3 4 6 5 4 4 5 7 7 6 6 6 6 5 7 7 7 6 6 6 7 8 8 8 8 8 9 9 10 11 12 13 12 10 10 9 11 9 5 7 8 8 9 11 11 9 9 9 10 9 12 16 17 10 9 8 8 8 8 8 8 8 7 8 8 8 8 8 8 9 8 8 8 8 8 8 8 6 6 6 5 4 4
4 3 4 3 4 4 4 5 5 5 5 4 4 7 6 5 5 5 6 6 6 4 4 5 6 7 7 8 8 8 8 10 10 11 12 11 9 9 9 8 5 3 9 12 9 9 12 17 12 8 8 8 9 9 10 13 14 10 9 8 8 7 6 6 6 6 7 6 7 8 8 8 8 7 7 7 7 6 6 6 6 5 5 5 4 4 4
5 4 4 3 4 3 4 5 6 5 5 5 5 6 5 6 6 6 6 6 5 4 5 4 5 7 7 8 8 9 9 9 10 10 8 6 7 7 6 8 3 7 8 8 8 9 11 10 8 8 8 9 8 11 9 13 11 7 7 6 6 6 5 5 5 5 5 6 6 6 6 7 6 6 6 6 6 5 5 5 5 5 6 5 6 5 5
5 3 3 4 4 4 4 5 5 7 7 5 6 6 5 5 5 7 7 6 6 5 5 5 6 7 7 7 7 8 8 8 7 5 5 5 7 7 7 6 5 6 12 13 11 9 7 7 7 8 8 9 9 13 15 10 7 7 6 6 6 5 5 5 5 5 5 5 5 5 6 6 5 6 6 6 6 6 6 6 6 6 6 7 6 6 6
4 4 4 5 5 5 5 5 5 7 9 8 5 5 5 4 4 5 5 5 5 5 5 5 4 6 5 5 6 7 7 6 7 7 6 5 6 2 1 4 7 7 13 9 9 7 7 6 7 6 12 12 10 14 12 7 7 7 6 6 7 6 6 6 6 6 6 6 6 6 5 5 4 4 4 5 5 6 6 7 7 7 7 6 7 7 7
6 4 4 5 6 5 4 5 5 5 6 8 5 4 6 5 5 5 5 5 6 5 5 6 6 6 6 5 5 6 7 6 6 6 5 7 4 1 1 4 6 8 12 9 7 7 7 7 6 12 16 15 16 14 8 6 6 6 6 6 6 5 5 5 6 6 6 6 6 6 6 6 6 5 5 5 5 5 5 5 4 5 6 6 6 7 7
7 7 6 7 9 8 6 6 6 7 7 6 8 8 7 6 6 5 4 5 6 6 5 5 5 6 5 5 5 6 6 6 6 6 5 6 7 5 2 7 8 7 9 12 8 6 6 7 11 16 13 15 14 12 6 5 5 5 5 5 5 5 6 6 6 6 6 6 6 6 7 6 6 6 6 6 7 6 6 6 6 6 5 5 5 5 5
9 9 9 8 9 9 8 6 6 5 5 7 8 8 6 6 6 5 6 8 8 6 6 6 5 6 6 6 5 6 6 7 7 5 3 1 3 6 8 8 7 7 12 12 5 6 6 12 15 15 15 14 12 7 6 5 5 5 5 5 6 6 6 6 6 6 6 6 6 6 6 6 6 6 6 6 6 6 7 8 7 7 7 6 6 6 6
8 9 9 9 11 9 9 8 7 5 6 5 6 7 3 4 4 4 5 7 9 9 8 7 9 11 10 7 5 4 4 4 4 1 4 1 2 5 7 9 8 10 9 6 5 5 6 9 11 15 14 13 11 5 5 5 5 5 5 5 5 5 5 5 6 5 5 5 7 7 7 7 6 6 6 7 7 7 7 7 6 6 6 7 6 7 7
6 8 8 7 9 9 7 7 6 6 7 8 6 6 5 4 4 5 6 6 6 5 6 5 6 7 9 8 8 4 4 2 2 3 1 2 2 2 3 2 6 10 10 7 8 8 12 14 14 14 13 11 7 5 5 4 4 4 5 5 6 6 6 6 6 6 5 5 6 5 5 6 6 6 6 6 6 6 6 6 6 6 6 6 6 6 7
8 8 9 7 6 7 6 5 5 6 7 6 5 6 4 5 6 6 6 4 4 4 5 7 8 7 2 3 3 3 2 2 3 5 3 2 3 3 3 5 8 9 7 5 6 6 10 14 12 12 11 8 5 5 5 5 5 5 5 5 6 6 6 5 5 5 5 6 5 5 5 6 6 6 6 6 6 6 6 6 6 6 6 5 5 6 6
6 4 5 5 6 6 7 6 6 7 6 5 6 5 4 3 5 5 3 2 3 5 5 5 5 3 1 2 2 2 2 2 3 4 4 4 3 3 3 4 5 8 8 6 6 6 7 11 10 10 8 5 5 4 4 5 5 6 6 6 6 5 6 7 6 7 6 6 6 5 6 6 6 7 7 6 6 6 6 6 6 7 9 6 5 5 5
5 6 7 7 6 6 6 8 7 5 4 5 5 4 4 5 6 6 5 4 2 4 4 5 5 4 1 1 2 3 2 2 3 4 3 4 2 3 4 4 5 5 6 5 5 5 5 5 5 6 6 6 5 5 5 6 6 6 6 6 6 5 5 7 6 5 5 6 5 6 6 6 6 6 6 6 7 6 7 7 7 7 7 6 6 5 5
7 6 6 6 6 6 6 6 6 6 6 5 5 5 5 5 5 5 5 5 2 3 4 4 6 3 1 1 2 3 3 3 4 3 4 4 3 3 4 5 4 5 5 4 5 5 4 5 5 6 6 5 5 5 6 7 6 6 6 6 5 5 6 6 5 5 5 5 5 5 6 5 5 6 6 6 6 6 6 6 6 6 6 6 5 6 5
Wind_Direction
210 117 155 153 157 175 182 195 195 197 200 196 206 211 219 191 202 224 217 198 219 241 252 264 271 261 253 264 272 281 281 279 287 281 272 276 278 274 272 268 268 268 276 284 281 277 272 274 283 286 287 291 305 310 309 300 297 287 262 236 248 251 258 259 265 263 265 263 258 259 257 263 261 250 239 237 239 235 230 231 227 224 219 216 218 221 223
199 117 132 130 157 166 180 190 198 198 194 204 208 216 217 214 222 221 234 221 227 238 259 275 269 270 276 289 280 266 264 273 258 252 254 256 267 270 268 271 270 268 272 276 275 281 288 286 289 293 291 296 302 306 302 299 315 300 296 264 251 261 253 255 262 265 264 263 261 259 258 251 253 256 251 247 246 248 244 240 236 227 220 217 217 223 224
276 116 77 317 107 102 148 176 174 176 182 204 214 227 231 223 235 231 234 241 253 254 263 265 265 272 291 274 272 273 277 236 232 242 246 253 254 269 287 281 272 270 274 271 279 287 286 287 290 296 294 296 307 306 303 306 299 291 302 290 270 257 261 259 261 264 264 262 258 258 253 255 251 246 248 247 250 254 259 264 264 264 243 227 227 224 223
206 217 179 202 176 152 172 211 172 227 182 179 196 204 207 200 208 213 221 236 245 243 236 251 281 279 260 261 263 281 281 278 266 243 243 251 261 271 262 265 278 287 271 266 267 269 277 287 291 292 306 318 329 317 311 314 305 307 312 297 289 282 272 271 266 263 261 264 263 261 261 258 257 253 249 243 241 243 253 261 263 283 268 250 260 255 250
223 182 171 184 173 133 225 216 208 201 215 218 214 217 199 201 191 199 200 221 224 237 232 252 259 266 260 261 256 261 292 309 312 309 301 291 266 237 255 270 282 289 286 278 266 260 272 301 323 327 335 337 328 324 329 318 326 329 314 301 291 285 283 283 281 278 276 275 273 274 270 268 267 264 253 253 249 240 235 232 244 250 252 258 257 254 248
193 191 156 151 134 212 218 196 202 200 208 208 214 218 219 219 199 217 214 232 248 223 217 228 246 258 265 264 274 265 236 293 299 298 295 296 297 282 285 292 288 274 288 307 329 350 1 346 339 327 339 329 316 326 325 325 332 319 317 309 301 294 292 287 288 292 294 290 281 276 278 277 270 261 256 253 259 268 280 265 241 242 243 245 250 247 246
177 128 110 132 209 221 223 225 201 209 217 214 218 227 227 230 231 240 251 253 241 228 220 229 239 249 267 283 293 296 296 275 260 270 288 294 290 293 299 314 0 26 23 18 15 9 359 343 337 346 340 342 341 342 339 329 324 321 314 304 305 302 299 294 292 293 293 291 289 288 285 279 273 260 255 264 269 265 259 251 248 248 245 242 242 245 248
103 88 163 175 230 226 237 245 216 209 211 217 223 245 252 248 236 222 234 236 237 237 240 244 255 271 280 287 291 279 276 255 210 263 278 291 320 350 33 41 28 25 23 25 14 349 329 341 335 342 343 346 347 324 323 319 317 319 315 315 308 305 305 304 303 300 298 295 293 292 290 285 275 267 260 253 259 253 248 250 248 254 255 246 249 245 243
171 167 193 212 335 329 290 267 230 202 200 171 183 226 238 231 228 230 239 240 241 245 251 258 267 270 288 297 286 325 30 32 30 45 42 49 24 23 18 31 26 12 10 6 343 336 330 324 330 346 349 343 332 323 326 320 319 318 325 327 327 328 324 321 319 316 313 307 303 300 295 291 283 275 271 269 262 245 254 252 248 244 248 250 255 256 252
148 148 181 146 165 242 247 232 93 144 188 179 156 160 289 221 218 214 222 233 252 258 261 263 259 267 293 277 271 54 341 38 31 32 48 30 24 15 10 15 9 3 358 354 339 347 336 335 325 341 350 339 330 328 321 318 323 324 331 330 333 334 329 329 325 322 316 310 306 302 300 295 290 284 276 271 265 237 243 259 255 250 250 256 248 246 252
131 177 187 201 200 239 149 110 181 176 146 135 116 136 256 243 232 231 222 238 236 231 237 246 242 233 242 248 263 37 347 11 27 26 13 23 25 24 20 22 1 347 341 338 325 334 344 343 331 341 351 344 334 324 316 317 320 323 326 330 336 334 327 324 321 319 315 313 310 308 305 299 295 292 287 278 273 250 247 250 258 261 253 260 265 253 247
183 160 174 223 203 258 211 126 71 131 139 112 96 74 262 259 161 196 209 221 228 228 227 227 217 185 223 243 222 254 55 41 42 58 8 0 357 4 1 5 347 330 329 342 346 352 347 332 331 335 343 349 331 316 319 322 333 331 328 327 324 320 316 316 317 317 319 319 314 314 309 305 300 289 287 292 284 276 267 252 263 259 254 257 266 265 251
204 180 229 293 277 243 152 137 130 105 116 113 127 211 228 171 81 26 95 194 231 245 251 125 176 124 160 172 199 179 108 53 6 6 358 11 342 340 344 327 336 335 326 322 311 314 311 316 330 326 341 349 329 323 325 334 332 322 317 322 321 316 313 312 312 312 313 314 312 311 305 300 299 298 296 288 287 283 279 276 271 272 261 261 265 271 262
196 197 163 235 273 234 140 148 139 138 88 179 216 223 138 116 98 54 84 101 47 101 107 114 126 174 145 215 92 85 37 145 149 303 322 339 335 315 311 314 322 316 307 309 309 314 312 320 319 321 334 348 323 332 337 334 319 314 324 320 318 317 313 307 303 303 306 308 304 303 307 311 312 307 298 285 284 284 281 281 280 278 276 272 271 271 268
65 128 196 47 257 248 158 150 125 158 155 228 184 127 14 91 132 112 68 95 98 112 102 88 114 101 93 78 156 266 288 279 314 314 322 328 317 322 332 328 312 310 321 317 317 308 316 322 322 317 336 343 339 338 339 319 317 326 322 322 319 315 309 307 308 307 306 308 310 313 309 309 307 307 311 310 299 291 289 290 286 286 284 283 281 281 281
164 165 183 210 217 85 153 136 171 205 199 165 134 114 123 59 127 132 125 100 144 105 110 112 98 119 6 314 324 319 310 305 307 303 304 297 308 307 300 288 298 310 300 294 304 314 311 315 319 320 337 343 339 342 329 317 323 322 327 327 326 322 319 317 316 316 317 313 307 302 301 303 304 301 308 308 301 300 297 293 295 292 290 287 281 280 284
166 201 214 220 123 120 120 94 154 188 170 97 158 111 139 146 206 176 124 156 162 127 128 128 155 123 256 262 284 306 293 305 305 304 282 274 284 292 303 316 307 315 315 315 316 316 334 313 316 319 331 340 335 337 328 334 330 333 332 331 329 325 323 322 321 321 319 316 312 305 300 301 307 308 305 307 307 300 290 285 283 286 287 290 283 285 287
239 283 252 250 315 161 137 122 132 130 106 92 107 132 138 197 166 173 154 161 151 150 158 131 235 172 259 275 286 277 280 285 288 284 289 300 304 306 321 319 320 313 312 312 315 316 325 334 310 308 324 345 337 320 321 324 324 330 331 330 329 326 321 320 321 319 318 318 314 309 307 300 286 279 283 294 293 295 291 277 274 275 285 289 286 287 286
132 243 240 249 247 168 129 118 69 74 108 176 171 161 161 158 142 114 107 140 153 151 152 157 178 221 238 276 282 285 289 292 288 291 293 298 303 329 328 310 323 330 328 322 321 321 318 323 323 314 312 297 281 291 307 310 314 317 323 324 322 324 325 322 320 320 317 319 318 318 318 312 298 287 278 273 274 276 272 275 273 272 273 280 284 282 284
187 241 132 213 256 247 195 173 146 148 100 73 50 75 102 115 125 141 164 146 139 155 135 167 172 211 237 249 279 287 292 292 301 306 310 316 325 314 303 307 319 321 327 321 322 321 317 317 318 315 316 309 294 302 309 318 321 324 325 329 327 322 319 316 315 319 317 315 318 316 318 320 316 313 290 270 271 265 267 259 272 277 272 272 271 277 284
250 280 269 68 31 338 43 52 68 116 131 112 96 104 110 117 118 140 157 148 150 122 205 97 358 321 289 264 271 291 300 305 305 304 305 313 315 320 329 322 338 330 322 318 308 309 306 309 313 317 310 304 313 327 329 331 332 330 321 320 317 309 307 309 310 313 311 313 314 312 310 311 298 286 297 300 283 278 237 234 238 257 277 268 264 266 269
236 223 230 134 251 253 93 33 112 107 126 124 125 107 85 92 100 90 68 16 39 102 254 279 298 288 292 303 309 302 294 294 303 315 319 319 319 319 315 321 328 318 305 296 299 300 299 300 305 306 307 309 311 312 310 305 306 306 307 309 310 308 307 306 307 310 310 308 306 304 307 308 311 306 259 251 269 273 286 251 240 243 242 262 267 275 277
234 236 230 200 212 53 101 139 132 105 115 99 89 87 91 77 76 76 66 26 357 349 322 345 28 321 315 306 326 320 320 308 303 309 318 322 324 323 324 323 316 308 299 292 289 292 294 305 301 300 302 307 309 312 312 307 309 304 311 310 308 308 311 308 309 307 304 303 304 302 301 304 306 306 313 299 251 260 263 267 268 264 261 262 267 263 259
217 73 76 100 146 147 146 104 74 59 59 90 90 86 74 58 38 27 49 21 5 319 330 329 339 345 351 335 345 321 317 320 330 324 322 320 317 316 318 313 306 310 309 307 302 300 308 311 308 307 305 306 307 306 306 302 304 304 304 306 304 305 308 305 306 302 299 297 298 299 299 300 300 306 307 309 311 281 264 277 274 267 267 267 265 262 262
204 31 80 82 99 100 95 100 86 72 57 66 76 68 57 35 358 41 27 352 355 11 353 334 333 350 348 334 347 331 323 320 323 318 319 319 314 313 307 308 307 307 313 324 319 316 314 311 308 306 303 303 304 300 304 319 328 312 299 298 298 299 301 301 301 300 297 295 291 288 291 296 298 298 298 304 304 311 311 278 269 274 275 264 259 262 261
78 83 90 83 86 96 109 89 68 66 51 74 71 61 35 43 33 38 23 8 345 341 343 325 334 343 16 2 352 339 334 323 327 332 322 316 314 312 310 306 315 325 320 320 317 315 311 308 304 303 302 302 302 310 351 3 356 324 306 298 293 292 297 299 297 294 292 292 291 288 278 277 280 284 289 288 292 296 301 312 314 290 236 238 255 262 259
49 12 106 84 81 76 38 90 128 121 160 118 93 82 57 42 32 14 330 336 316 315 335 355 5 347 353 354 350 350 336 325 327 317 314 308 306 304 311 322 321 319 315 311 307 305 303 302 299 295 296 302 319 7 14 1 337 320 309 301 296 289 290 293 293 293 292 287 286 283 283 281 281 283 282 285 286 288 291 295 295 295 306 300 268 243 257
47 23 15 133 156 134 111 112 151 181 83 82 80 67 39 25 14 9 346 343 359 356 353 347 357 6 355 354 356 330 330 320 311 308 307 302 304 314 316 314 313 311 309 304 300 298 292 289 291 298 307 326 358 0 349 337 328 315 308 301 295 290 290 288 285 284 285 287 287 286 287 280 276 273 275 278 276 276 279 276 278 287 292 284 289 295 279
35 22 16 39 57 83 218 313 356 85 84 71 72 59 35 25 1 353 350 5 342 341 340 345 5 16 3 342 344 322 314 309 306 306 305 308 310 307 307 306 303 301 298 295 290 287 293 310 315 312 309 331 335 333 330 323 314 310 306 301 295 291 288 285 284 281 280 280 283 285 284 283 280 275 273 269 267 271 270 269 275 278 279 291 297 288 261
12 356 6 9 12 351 40 54 70 74 73 45 36 25 8 27 16 4 344 327 352 358 335 350 353 339 345 326 317 307 306 308 308 306 305 302 302 303 304 304 300 293 284 281 298 320 318 310 306 303 308 311 304 299 295 293 290 287 286 288 288 287 287 285 285 284 286 284 284 285 284 284 278 275 276 272 272 271 273 275 277 279 282 285 282 283 290
317 284 297 36 45 35 54 44 33 45 68 42 33 9 2 25 9 328 323 339 347 324 331 327 317 310 308 299 299 299 303 304 302 300 298 297 296 296 298 301 301 302 309 310 313 311 305 304 299 297 301 297 291 292 296 298 298 296 288 284 282 281 283 286 283 282 281 283 287 288 286 285 284 287 285 285 283 277 275 276 277 275 277 279 278 279 280
287 226 123 65 34 51 59 42 34 18 23 18 14 2 360 350 331 328 322 327 322 328 314 311 305 305 304 302 302 303 300 294 292 291 291 292 292 290 288 289 293 301 303 305 304 305 301 298 296 294 298 310 328 335 325 308 302 295 291 289 288 290 287 285 283 280 276 274 277 278 279 281 281 280 283 284 282 282 283 282 279 279 278 276 278 277 279
44 34 341 6 13 36 50 26 18 338 345 339 338 327 334 327 314 311 316 319 314 310 305 298 298 295 301 305 305 300 295 291 286 283 281 279 283 292 308 310 302 294 293 293 296 295 293 291 294 323 351 347 332 319 309 303 298 293 291 290 286 288 286 284 279 279 278 277 277 274 273 272 275 277 277 278 277 277 277 276 276 279 277 276 277 279 278
81 114 123 54 64 315 311 307 325 308 301 302 310 324 318 319 317 308 306 305 298 297 294 294 298 305 304 300 296 294 297 298 295 293 294 301 305 308 302 296 294 291 286 288 291 296 299 311 333 333 327 321 315 308 299 291 288 287 286 289 289 287 287 285 286 284 282 279 277 278 276 275 272 272 274 274 274 274 272 273 275 276 280 279 279 282 280
58 30 50 298 333 334 323 294 301 297 299 296 296 301 303 305 306 297 296 297 294 292 297 299 296 294 296 296 297 295 295 291 293 298 301 301 295 293 292 288 285 293 307 312 308 294 309 325 316 319 317 319 312 302 295 290 287 285 282 280 281 283 284 287 288 285 284 283 287 288 284 281 277 280 280 282 286 285 283 280 277 275 276 277 277 278 267
31 5 348 335 312 315 320 300 283 286 286 282 286 290 294 292 293 293 295 291 295 297 294 293 294 296 295 296 294 298 299 299 298 295 292 291 292 291 289 300 320 318 302 291 282 308 333 318 326 326 322 309 301 292 286 287 282 283 285 288 288 290 288 286 283 282 279 283 286 286 286 289 292 291 290 289 284 280 279 279 279 280 280 281 284 284 278
358 334 307 311 298 299 284 282 275 275 272 273 278 282 278 278 276 280 284 288 286 287 291 293 297 298 297 298 297 294 292 289 290 293 294 293 291 302 317 318 308 298 299 296 319 10 335 322 309 305 303 299 298 293 294 296 293 291 288 285 282 279 281 279 281 280 282 283 284 288 294 295 293 293 293 292 290 289 288 286 287 286 284 284 287 288 287
292 280 270 269 272 273 267 260 262 264 269 270 266 263 269 275 277 274 275 282 286 285 290 294 289 288 293 296 293 290 289 292 292 290 292 303 320 314 308 303 301 300 294 298 338 333 306 305 306 302 295 292 291 292 297 302 301 298 289 286 282 281 279 279 280 279 282 284 287 290 292 292 292 293 294 290 287 289 292 296 298 301 303 306 307 309 306
272 264 268 264 266 269 269 270 261 254 248 261 273 272 267 267 272 279 280 281 283 287 286 290 300 303 297 292 290 293 294 293 298 306 309 308 304 302 294 294 283 297 304 305 313 312 312 311 306 302 298 295 299 300 302 303 302 297 289 282 282 275 274 268 270 276 289 293 293 293 295 294 293 292 292 295 302 304 302 301 304 303 308 311 324 325 333
246 234 242 242 251 253 261 265 265 264 261 250 257 275 280 285 280 276 280 285 284 296 302 300 302 295 294 295 297 296 301 306 304 303 301 302 307 300 294 287 280 16 338 337 329 313 314 316 314 305 303 304 307 305 304 305 305 298 288 281 273 275 281 295 303 307 308 316 317 315 310 307 311 312 311 314 314 315 322 324 325 327 328 337 347 346 351
239 241 248 238 255 258 264 278 282 275 274 277 267 261 267 272 282 290 287 289 291 300 295 292 294 291 292 294 300 302 304 303 299 293 298 318 307 298 295 296 345 10 328 316 314 316 315 318 316 315 317 315 310 311 308 312 310 296 295 298 311 318 322 322 331 331 331 322 321 320 327 328 323 324 331 335 333 340 340 344 344 348 353 352 351 353 356
248 244 260 270 269 272 274 277 288 300 292 272 268 270 271 269 270 275 286 295 296 295 292 288 282 292 300 307 305 301 299 294 292 297 309 305 301 301 301 293 345 333 321 326 322 320 318 316 321 318 316 313 310 317 327 326 325 324 326 326 332 335 342 343 347 341 339 340 342 344 344 342 341 344 345 353 357 359 356 2 5 5 5 4 3 3 2
263 265 264 266 270 273 273 276 278 278 288 291 282 275 275 275 272 274 279 282 283 291 295 288 290 298 299 299 302 306 304 307 310 304 305 295 290 260 172 302 319 320 327 329 325 318 322 322 320 314 326 331 331 339 347 349 340 344 343 345 344 350 353 357 359 356 354 356 359 354 345 344 351 1 8 16 16 10 11 11 11 10 10 13 14 11 12
277 274 266 269 272 271 272 278 278 285 288 291 295 293 296 292 279 272 278 284 290 292 298 305 310 310 304 306 309 307 305 312 310 308 317 312 333 249 181 4 318 321 330 329 327 324 322 324 316 332 334 340 345 352 355 354 354 355 355 355 357 0 0 3 3 6 5 4 359 350 345 349 355 356 8 15 23 31 37 36 26 28 29 31 28 18 16
269 266 268 267 270 284 284 277 280 281 283 296 310 309 304 298 297 292 290 291 287 284 283 286 289 291 291 289 278 274 274 279 275 287 305 321 331 317 351 345 328 326 325 331 324 318 314 320 330 338 345 349 354 358 357 351 351 350 341 344 354 6 9 9 9 5 9 7 8 2 2 3 0 2 3 7 10 7 10 11 15 12 13 19 18 29 25
276 273 269 274 274 266 260 260 263 279 300 307 304 298 287 275 286 304 295 282 274 268 258 251 250 258 257 261 267 266 268 267 277 263 195 192 262 298 322 323 323 321 327 328 315 316 315 330 338 347 352 357 1 358 354 350 344 339 342 357 12 6 8 8 9 11 7 5 4 7 9 4 12 11 11 12 14 16 17 23 22 15 12 13 11 13 12
262 275 270 259 262 267 273 273 271 277 286 296 292 288 295 302 295 289 283 277 268 271 273 262 246 243 240 237 240 268 281 293 296 223 122 327 290 306 312 317 317 321 329 321 313 311 323 339 345 347 353 356 359 354 351 350 349 350 352 1 6 10 11 14 11 3 4 4 8 9 9 10 7 7 12 18 19 19 12 15 19 17 14 16 14 16 15
257 263 269 267 270 275 282 285 284 279 267 256 249 271 288 289 288 285 278 266 260 273 285 270 243 241 243 250 249 235 220 211 328 278 161 26 303 293 302 295 312 323 325 321 330 333 341 349 352 353 352 357 354 350 348 349 352 360 4 10 16 16 18 19 15 9 1 9 10 5 6 10 10 6 9 12 13 11 10 15 17 15 18 22 17 13 12
250 257 266 272 271 272 265 262 258 259 259 253 248 265 271 280 287 284 274 253 266 288 280 280 259 232 231 245 251 250 248 232 209 239 292 311 301 314 297 313 317 326 334 333 338 337 341 346 347 350 351 353 353 348 347 350 355 7 10 15 16 14 11 9 8 5 4 8 10 13 13 11 9 11 10 9 8 8 9 12 13 19 18 20 25 23 23
254 250 253 248 239 233 228 229 234 240 247 234 238 252 262 281 287 270 271 268 260 270 271 268 282 258 234 268 265 273 258 266 271 272 277 290 307 297 293 305 318 338 346 345 340 337 333 336 338 343 346 339 341 348 352 354 359 4 9 10 13 12 11 9 8 12 10 9 9 12 9 8 6 9 8 8 6 5 5 6 3 12 19 26 24 25 22
222 222 229 229 229 231 216 219 233 240 238 235 237 244 247 245 248 265 272 266 266 280 279 286 283 266 221 279 287 293 289 289 288 301 301 293 299 318 325 330 338 340 342 340 329 323 321 320 323 333 337 339 340 346 352 359 358 0 2 3 360 3 4 8 4 0 1 6 8 8 10 8 4 6 7 5 2 1 1 4 5 4 4 6 9 12 15
224 231 236 238 237 241 233 233 235 236 229 227 224 237 235 242 253 269 270 264 235 248 269 297 301 287 272 276 300 298 295 306 298 297 302 303 311 313 332 342 342 340 333 324 316 309 309 315 326 337 344 343 341 345 349 358 1 353 352 355 355 356 1 0 355 354 352 0 4 5 6 6 7 8 4 358 359 358 357 358 359 359 358 358 358 3 5